EHI
0 0 0 0 0 0 0 0 0 0 0 0 0 0 0 0 0 0 0 0 0 0 0 0 0 0 0 0 0 0 0 0 0 0 0 0 0 0
0 0 0 0 0 0 0 0 0 0 0 0 0 0 0 0 0 0 0 0 0 0 0 0 0 0 0 0 0 0 0 0 0 0 0 0 0 0
0 0 0 0 0 0 0 0 0 0 0 0 0 0 0 0 0 0 0 0 0 0 0 0 0 0 0 0 0 0 0 0 0 0 0 0 0 0
0 0 0 0 0 0 0 0 0 0 0 0 0 0 0 0 0 0 0 0 0 0 0 0 0 0 0 0 0 0 0 0 0 0 0 0 0 0
0 0 0 0 0 0 0 0 0 0 0 0 0 0 0 0 0 0 0 0 0 0 0 0 0 0 0 0 0 0 0 0 0 0 0 0 0 0
0 0 0 0 0 0 0 0 0 0 0 0 0 0 0 0 0 0 0 0 0 0 0 0 0 0 0 0 0 0 0 0 0 0 0 0 0 0
0 0 0 0 0 0 0 0 0 0 0 0 0 0 0 0 0 0 0 0 0 0 0 0 0 0 0 0 0 0 0 0 0 0 0 0 0 0
0 0 0 0 0 0 0 0 0 0 0 0 0 0 0 0 0 0 0 0 0 0 0 0 0 0 0 0 0 0 0 0 0 0 0 0 0 0
0 0 0 0 0 0 0 0 0 0 0 0 0 0 0 0 0 0 0 0 0 0 0 0 0 0 0 0 0 0 0 0 0 0 0 0 0 0
0 0 0 0 0 0 0 0 0 0 0 0 0 0 0 0 0 0 0 0 0 0 0 0 0 0 0 0 0 0 0 0 0 0 0 0 0 0
0 0 0 0 0 0 0 0 0 0 0 0 0 0 0 0 0 0 0 0 0 0 0 0 0 0 0 0 0 0 0 0 0 0 0 0 0 0
0 0 0 0 0 0 0 0 0 0 0 0 0 0 0 0 0 0 0 0 0 0 0 0 0 0 0 0 0 0 0 0 0 0 0 0 0 0
0 0 0 0 0 0 0 0 0 0 0 0 0 0 0 0 0 0 0 0 0 0 0 0 0 0 0 0 0 0 0 0 0 0 0 0 0 0
0 0 0 0 0 0 0 0 0 0 0 0 0 0 0 0 0 0 0 0 0 0 0 0 0 0 0 0 0 0 0 0 0 0 0 0 0 0
0 0 0 0 0 0 0 0 0 0 0 0 0 0 0 0 0 0 0 0 0 0 0 0 0 0 0 0 0 0 0 0 0 0 0 0 0 0
0 0 0 0 0 0 0 0 0 0 0 0 0 0 0 0 0 0 0 0 0 0 0 0 0 0 0 0 0 0 0 0 0 0 0 0 0 0
0 0 0 0 0 0 0 0 0 0 0 0 0 0 0 0 0 0 0 0 0 0 0 0 0 0 0 0 0 0 0 0 0 0 0 0 0 0
0 0 0 0 0 0 0 0 0 0 0 0 0 0 0 0 0 0 0 0 0 0 0 0 0 0 0 0 0 0 0 0 0 0 0 0 0 0
0 0 0 0 0 0 0 0 0 0 0 0 0 0 0 0 0 0 0 0 0 0 0 0 0 0 0 0 0 0 0 0 0 0 0 0 0 0
0 0 0 0 0 0 0 0 0 0 0 0 0 0 0 0 0 0 0 0 0 0 0 0 0 0 0 0 0 0 0 0 0 0 0 0 0 0
0 0 0 0 0 0 0 0 0 0 0 0 0 0 0 0 0 0 0 0 0 0 0 0 0 0 0 0 0 0 0 0 0 0 0 0 0 0
0 0 0 0 0 0 0 0 0 0 0 0 0 0 0 0 0 0 0 0 0 0 0 0 0 0 0 0 0 0 0 0 0 0 0 0 0 0
0 0 0 0 0 0 0 0 0 0 0 0 0 0 0 0 0 0 0 0 0 0 0 0 0 0 0 0 0 0 0 0 0 0 0 0 0 0
Wind_Speed
5 5 3 2 2 1 0 1 1 2 3 3 2 3 4 5 7 6 7 11 14 13 13 14 14 15 16 17 19 20 20 21 22 22 23 23 23 23
4 4 3 2 2 1 1 1 1 2 3 2 3 5 6 7 9 7 8 13 13 14 14 14 14 16 17 18 19 20 21 21 21 22 23 23 24 23
5 5 4 3 2 1 1 1 1 2 3 4 3 4 6 8 9 8 7 7 7 13 15 15 15 16 17 18 19 19 19 20 20 21 22 22 23 23
6 5 5 4 4 2 1 2 2 3 3 5 4 4 6 8 9 9 8 7 7 12 15 16 17 17 16 16 16 16 16 17 19 20 21 21 22 22
5 5 5 5 4 3 3 2 2 2 3 4 6 4 5 6 7 8 9 7 8 9 13 14 15 15 16 16 16 15 15 15 16 17 19 19 20 21
6 5 6 5 5 4 3 3 3 4 4 4 6 6 6 6 5 6 8 7 8 9 10 10 12 15 16 17 17 17 15 14 14 14 15 16 17 17
7 7 7 8 6 5 4 4 4 4 5 6 7 7 8 7 7 5 8 9 9 6 6 7 8 8 9 12 14 15 15 14 13 13 13 13 14 14
8 9 8 7 8 9 10 10 9 7 8 7 7 8 10 9 8 7 7 8 6 4 5 9 8 8 8 7 11 14 14 14 13 13 12 12 12 13
7 7 7 7 9 7 10 13 12 13 11 8 9 10 10 9 8 9 8 8 8 7 6 8 7 8 8 8 13 14 14 13 12 12 11 11 11 11
7 7 8 8 8 9 9 10 11 10 10 7 8 10 10 10 8 8 8 8 8 7 5 6 7 7 9 8 10 11 12 12 12 11 11 11 11 11
8 8 8 8 11 11 9 10 11 10 9 9 10 11 12 12 9 5 5 5 6 7 3 3 5 8 8 6 7 10 11 12 12 12 12 11 10 10
9 9 10 9 12 13 9 8 10 10 9 10 9 8 7 7 6 3 3 4 5 5 2 3 5 5 5 4 7 7 7 9 11 11 11 10 9 6
8 8 8 13 15 15 11 7 9 10 8 7 6 6 6 5 5 4 3 3 4 4 4 4 4 4 4 5 6 6 6 7 6 6 7 8 7 5
7 7 9 15 16 15 9 8 10 7 4 4 5 5 5 5 5 6 6 4 5 6 7 5 3 4 5 5 5 7 7 6 5 5 5 6 5 4
7 12 14 15 13 9 9 10 7 4 4 4 5 4 4 5 5 5 5 5 5 5 4 3 4 4 4 4 5 5 6 5 5 5 5 4 4 3
8 10 12 10 7 7 7 6 4 4 3 4 4 4 4 4 4 3 3 4 4 5 5 5 5 4 3 5 5 6 6 5 6 6 5 4 3 3
8 5 5 6 7 7 7 7 5 5 5 4 4 4 5 4 4 3 3 3 4 5 6 6 6 4 4 3 4 6 6 5 5 6 5 4 3 3
6 5 6 6 7 7 7 7 6 6 6 6 5 4 5 5 5 4 3 3 4 5 5 5 6 6 3 1 2 5 6 5 5 6 4 4 4 4
5 5 6 6 7 7 7 6 6 7 6 5 5 5 5 4 4 4 4 4 4 4 5 5 5 5 5 6 5 3 5 5 6 5 4 3 4 5
5 6 6 7 7 7 7 7 7 7 6 6 6 6 5 4 4 5 4 5 4 4 5 5 5 5 5 5 5 5 6 5 5 6 6 4 4 5
6 6 6 6 7 7 7 6 6 6 7 6 6 6 6 5 5 5 4 5 4 4 5 5 5 7 4 3 3 5 5 6 5 4 6 5 5 6
6 6 6 6 7 7 7 7 7 6 7 6 6 6 6 5 5 6 5 4 4 4 5 5 5 5 5 6 6 6 7 6 5 6 7 7 4 5
6 6 6 7 6 6 6 7 8 7 6 6 6 6 6 5 5 4 4 4 4 5 5 5 5 5 5 5 5 6 9 8 7 7 7 9 9 8
Wind_Direction
53 53 56 45 38 36 67 191 211 267 281 292 297 302 317 312 308 310 307 306 305 302 299 296 293 291 289 286 285 283 281 279 278 277 275 274 273 272
35 39 33 19 12 8 345 259 222 225 260 277 277 293 304 306 307 309 300 302 300 298 295 293 291 289 287 285 284 282 280 279 278 277 277 275 273 271
22 19 9 354 348 334 308 269 235 216 253 278 272 286 293 296 306 304 297 292 288 292 293 291 289 287 286 286 285 283 281 280 279 278 278 276 274 272
6 359 350 345 333 313 292 273 256 233 241 278 290 293 288 295 298 300 300 299 295 292 290 290 290 290 290 288 287 284 280 278 277 277 276 275 274 272
353 344 332 330 322 312 299 283 272 264 240 263 287 288 288 293 300 299 300 298 298 295 294 291 293 295 295 292 288 284 277 272 271 272 273 274 273 273
347 335 325 314 302 303 302 298 292 289 279 277 288 294 291 292 289 299 307 310 305 301 294 293 293 296 294 291 289 287 282 275 272 271 271 271 270 271
346 339 327 324 335 334 327 314 306 298 298 296 296 296 296 299 300 299 301 308 302 289 297 300 298 295 293 291 289 287 286 282 278 275 271 267 265 265
341 336 329 332 338 337 332 325 314 301 295 289 288 289 292 293 294 296 299 303 303 296 297 303 300 296 296 290 286 287 287 286 284 280 275 272 268 263
331 328 327 325 329 322 320 318 311 301 288 276 276 279 286 290 295 297 294 293 290 297 300 296 300 299 301 297 296 295 293 290 288 285 280 276 271 265
321 314 310 312 316 322 317 311 307 302 295 283 267 275 279 284 282 283 288 290 286 285 274 284 302 308 308 304 297 296 298 296 295 293 289 283 275 269
319 314 310 308 309 318 317 309 307 306 306 296 284 282 283 286 287 283 289 298 307 311 297 276 300 312 306 298 303 304 305 303 301 299 295 289 280 274
320 316 314 310 309 314 311 301 301 306 315 320 319 317 313 311 311 285 284 298 306 305 307 302 301 315 305 298 310 314 315 309 305 301 300 296 287 273
315 317 315 316 315 314 311 289 282 293 304 308 313 319 326 330 332 326 295 267 285 289 300 309 296 303 291 302 307 313 318 316 316 310 307 305 294 273
306 309 308 312 313 314 314 307 308 309 309 320 326 327 329 330 327 322 313 291 259 266 285 294 284 301 306 303 307 316 321 323 325 320 324 321 310 288
304 307 311 313 317 320 323 328 335 340 335 332 328 318 310 308 312 318 320 322 314 299 295 288 286 293 297 302 310 312 316 320 334 334 335 342 346 342
326 321 320 321 331 332 333 342 347 339 327 318 313 308 311 320 325 329 322 329 328 326 324 323 315 300 296 309 312 320 324 324 331 337 338 348 357 358
322 328 345 349 352 350 345 342 343 349 346 334 323 322 325 330 327 330 324 323 328 331 334 337 334 316 267 286 321 330 332 332 335 338 337 341 353 358
345 351 349 348 345 342 340 338 339 345 339 331 327 326 326 326 326 330 333 333 335 335 336 335 340 344 342 276 269 329 336 333 336 340 341 335 343 350
8 356 349 343 339 338 338 336 330 330 327 328 330 331 328 325 327 331 335 336 338 337 337 339 346 348 351 352 337 346 340 334 337 342 345 337 331 334
1 351 343 339 337 337 338 336 332 333 337 337 336 336 337 332 333 336 336 335 335 340 348 354 358 352 343 332 323 321 338 341 338 341 341 330 317 312
348 344 340 338 336 336 336 334 332 332 336 336 337 339 339 338 340 344 343 341 345 349 355 353 340 334 326 334 347 354 351 355 0 355 345 341 344 355
342 340 338 339 337 336 336 336 337 338 342 342 338 337 337 339 343 348 353 353 356 355 350 348 349 359 12 16 13 4 3 4 9 23 30 23 2 357
342 338 337 340 341 339 339 339 339 336 339 338 335 335 336 340 344 352 359 4 4 9 10 7 10 16 16 15 14 14 16 16 15 22 29 21 25 29